�������l�o���
Date,Time,MP-1(��Sv/h),MP-2(��Sv/h),MP-3(��Sv/h),MP-4(��Sv/h),MP-5(��Sv/h),MP-6(��Sv/h),MP-7(��Sv/h),MP-8(��Sv/h),����,����(m/s),���J
2019/04/01,00:00,0.757,1.107,0.768,1.419,1.026,0.434,0.773,0.734,�k��,5.7,��
2019/04/01,00:10,0.757,1.108,0.767,1.417,1.024,0.434,0.775,0.732,�k��,2.9,��
2019/04/01,00:20,0.759,1.107,0.770,1.414,1.025,0.435,0.774,0.733,�k��,5.0,��
2019/04/01,00:30,0.756,1.109,0.768,1.415,1.026,0.434,0.772,0.734,�k��,4.2,��
2019/04/01,00:40,0.755,1.107,0.768,1.417,1.025,0.434,0.775,0.732,�k�k��,3.4,��
2019/04/01,00:50,0.756,1.105,0.768,1.416,1.025,0.434,0.775,0.734,�k�k��,3.1,��
2019/04/01,01:00,0.757,1.111,0.768,1.416,1.025,0.434,0.773,0.733,�k�k��,3.0,��
2019/04/01,01:10,0.757,1.108,0.768,1.414,1.025,0.434,0.774,0.732,�k�k��,4.9,��
2019/04/01,01:20,0.757,1.109,0.769,1.416,1.023,0.433,0.774,0.733,�k�k��,5.6,��
2019/04/01,01:30,0.756,1.107,0.769,1.415,1.025,0.434,0.774,0.733,�k�k��,6.1,��
2019/04/01,01:40,0.756,1.105,0.767,1.416,1.027,0.432,0.774,0.733,�k�k��,5.5,��
2019/04/01,01:50,0.756,1.107,0.768,1.416,1.026,0.433,0.774,0.732,�k��,4.3,��
2019/04/01,02:00,0.757,1.107,0.769,1.418,1.027,0.432,0.775,0.733,�k��,6.9,��
2019/04/01,02:10,0.757,1.108,0.768,1.416,1.030,0.433,0.774,0.734,�k��,5.9,��
2019/04/01,02:20,0.758,1.108,0.768,1.415,1.027,0.434,0.775,0.733,�k��,3.6,��
2019/04/01,02:30,0.757,1.108,0.769,1.416,1.024,0.433,0.774,0.733,�k��,6.4,��
2019/04/01,02:40,0.756,1.107,0.768,1.416,1.024,0.435,0.776,0.733,���k��,7.6,��
2019/04/01,02:50,0.759,1.109,0.766,1.418,1.027,0.434,0.776,0.734,�k��,8.8,��
2019/04/01,03:00,0.757,1.108,0.766,1.419,1.025,0.433,0.774,0.733,�k��,8.2,��
2019/04/01,03:10,0.756,1.108,0.769,1.418,1.027,0.434,0.775,0.734,�k��,7.1,��
2019/04/01,03:20,0.757,1.108,0.767,1.417,1.025,0.432,0.775,0.735,�k��,7.0,��
2019/04/01,03:30,0.757,1.109,0.770,1.418,1.026,0.435,0.774,0.734,�k��,7.6,��
2019/04/01,03:40,0.757,1.107,0.768,1.417,1.028,0.433,0.775,0.733,�k��,6.6,��
2019/04/01,03:50,0.756,1.106,0.768,1.418,1.022,0.434,0.774,0.731,�k��,8.9,��
2019/04/01,04:00,0.755,1.109,0.769,1.420,1.025,0.432,0.773,0.733,�k��,7.0,��
2019/04/01,04:10,0.756,1.107,0.769,1.416,1.026,0.436,0.775,0.733,�k��,5.6,��
2019/04/01,04:20,0.755,1.105,0.768,1.419,1.027,0.432,0.775,0.733,�k��,6.0,��
2019/04/01,04:30,0.757,1.107,0.769,1.419,1.026,0.434,0.774,0.733,�k��,6.0,��
2019/04/01,04:40,0.757,1.108,0.768,1.417,1.026,0.433,0.775,0.734,�k,5.3,��
2019/04/01,04:50,0.757,1.109,0.770,1.418,1.026,0.432,0.775,0.735,�k,7.0,��
2019/04/01,05:00,0.757,1.109,0.768,1.418,1.025,0.434,0.774,0.734,�k�k��,7.8,��
2019/04/01,05:10,0.757,1.109,0.766,1.418,1.026,0.434,0.774,0.735,�k�k��,8.0,��
2019/04/01,05:20,0.757,1.108,0.770,1.420,1.027,0.433,0.777,0.730,�k�k��,7.8,��
2019/04/01,05:30,0.757,1.107,0.767,1.420,1.022,0.433,0.772,0.733,�k,7.0,��
2019/04/01,05:40,0.756,1.111,0.769,1.419,1.025,0.433,0.774,0.734,�k�k��,5.9,��
2019/04/01,05:50,0.757,1.108,0.766,1.419,1.026,0.432,0.774,0.733,�k,6.1,��
2019/04/01,06:00,0.757,1.109,0.767,1.419,1.025,0.433,0.774,0.734,�k,4.4,��
2019/04/01,06:10,0.756,1.109,0.769,1.418,1.025,0.432,0.775,0.733,�k,4.8,��
2019/04/01,06:20,0.755,1.108,0.768,1.418,1.023,0.432,0.776,0.734,�k,4.1,��
2019/04/01,06:30,0.756,1.107,0.769,1.419,1.027,0.433,0.772,0.733,�k,5.8,��
2019/04/01,06:40,0.758,1.106,0.768,1.419,1.026,0.432,0.774,0.734,�k,4.9,��
2019/04/01,06:50,0.756,1.108,0.767,1.412,1.028,0.432,0.773,0.733,�k,4.8,��
2019/04/01,07:00,0.756,1.103,0.767,1.418,1.025,0.432,0.771,0.733,�k,3.4,��
2019/04/01,07:10,0.756,1.109,0.767,1.417,1.024,0.433,0.773,0.734,�k,2.8,��
2019/04/01,07:20,0.758,1.108,0.769,1.418,1.025,0.432,0.774,0.734,�k,4.0,��
2019/04/01,07:30,0.756,1.105,0.769,1.417,1.025,0.431,0.773,0.733,�k,3.4,��
2019/04/01,07:40,0.758,1.108,0.768,1.418,1.027,0.434,0.775,0.734,�k,2.6,��
2019/04/01,07:50,0.757,1.106,0.767,1.417,1.027,0.434,0.773,0.734,�k,3.8,��
2019/04/01,08:00,0.759,1.111,0.768,1.420,1.026,0.434,0.773,0.735,�k,3.3,��
2019/04/01,08:10,0.758,1.110,0.767,1.418,1.027,0.433,0.773,0.734,�k�k��,4.1,��
2019/04/01,08:20,0.757,1.110,0.768,1.416,1.026,0.433,0.773,0.733,�k,5.3,��
2019/04/01,08:30,0.758,1.107,0.768,1.420,1.027,0.432,0.773,0.735,�k�k��,5.4,��
2019/04/01,08:40,0.757,1.108,0.767,1.422,1.026,0.433,0.771,0.734,�k�k��,5.1,��
2019/04/01,08:50,0.759,1.107,0.766,1.419,1.029,0.431,0.770,0.735,�k,5.2,��
2019/04/01,09:00,0.758,1.107,0.769,1.418,1.024,0.434,0.773,0.734,�k,4.2,�L
2019/04/01,09:10,0.757,1.106,0.767,1.417,1.027,0.433,0.770,0.733,�k,4.7,�L
2019/04/01,09:20,0.755,1.108,0.768,1.420,1.028,0.434,0.770,0.733,�k,4.5,�L
2019/04/01,09:30,0.758,1.107,0.766,1.418,1.027,0.435,0.774,0.734,�k�k��,4.4,��
2019/04/01,09:40,0.757,1.108,0.768,1.421,1.027,0.434,0.772,0.735,�k�k��,5.6,�L
2019/04/01,09:50,0.758,1.107,0.769,1.422,1.030,0.433,0.771,0.735,�k�k��,4.5,��
2019/04/01,10:00,0.759,1.110,0.769,1.421,1.030,0.432,0.771,0.734,�k�k��,4.8,��
2019/04/01,10:10,0.761,1.108,0.771,1.420,1.032,0.435,0.772,0.734,�k�k��,3.8,��
2019/04/01,10:20,0.759,1.112,0.772,1.420,1.029,0.434,0.771,0.735,�k,3.9,��
2019/04/01,10:30,0.760,1.113,0.769,1.423,1.030,0.433,0.773,0.733,�k�k��,5.0,��
2019/04/01,10:40,0.759,1.108,0.768,1.420,1.030,0.432,0.772,0.733,�k��,5.7,��
2019/04/01,10:50,0.759,1.107,0.769,1.419,1.027,0.434,0.772,0.731,�k��,4.6,��
2019/04/01,11:00,0.760,1.107,0.769,1.422,1.029,0.434,0.774,0.732,�k�k��,5.5,��
2019/04/01,11:10,0.760,1.110,0.769,1.422,1.028,0.433,0.773,0.730,�k�k��,6.7,��
2019/04/01,11:20,0.761,1.107,0.770,1.423,1.029,0.434,0.774,0.731,�k�k��,6.3,�L
2019/04/01,11:30,0.759,1.109,0.770,1.422,1.029,0.435,0.774,0.734,�k��,6.9,�L
2019/04/01,11:40,0.758,1.110,0.769,1.421,1.030,0.434,0.774,0.733,�k�k��,6.4,�L
2019/04/01,11:50,0.759,1.111,0.770,1.423,1.027,0.434,0.774,0.732,�k�k��,6.8,�L
2019/04/01,12:00,0.764,1.113,0.769,1.423,1.030,0.434,0.774,0.734,�k��,6.2,�L
2019/04/01,12:10,0.761,1.113,0.769,1.422,1.031,0.433,0.774,0.732,�k��,6.4,�L
2019/04/01,12:20,0.760,1.112,0.770,1.423,1.031,0.434,0.773,0.733,�k�k��,6.8,��
2019/04/01,12:30,0.761,1.112,0.771,1.424,1.031,0.435,0.773,0.734,�k�k��,6.1,�L
2019/04/01,12:40,0.762,1.113,0.772,1.424,1.031,0.434,0.773,0.733,�k��,6.4,�L
2019/04/01,12:50,0.762,1.114,0.772,1.425,1.032,0.434,0.772,0.734,�k��,6.4,��
2019/04/01,13:00,0.760,1.114,0.770,1.422,1.031,0.434,0.773,0.733,�k��,4.6,�L
2019/04/01,13:10,0.761,1.112,0.770,1.423,1.031,0.433,0.774,0.732,�k��,5.1,�L
2019/04/01,13:20,0.763,1.116,0.771,1.424,1.031,0.436,0.773,0.736,�k��,5.7,�L
2019/04/01,13:30,0.763,1.114,0.770,1.422,1.030,0.434,0.774,0.731,�k��,5.2,��
2019/04/01,13:40,0.761,1.117,0.770,1.424,1.033,0.435,0.774,0.736,�k��,5.0,��
2019/04/01,13:50,0.763,1.116,0.772,1.422,1.033,0.435,0.772,0.735,�k��,5.2,�L
2019/04/01,14:00,0.761,1.116,0.774,1.422,1.035,0.435,0.772,0.735,�k��,5.6,�L
2019/04/01,14:10,0.764,1.117,0.773,1.424,1.034,0.435,0.773,0.732,�k��,5.2,��
2019/04/01,14:20,0.762,1.115,0.771,1.425,1.033,0.433,0.774,0.735,�k�k��,6.6,��
2019/04/01,14:30,0.761,1.117,0.773,1.423,1.035,0.435,0.773,0.734,�k�k��,7.8,��
2019/04/01,14:40,0.761,1.115,0.772,1.423,1.034,0.435,0.774,0.732,�k�k��,7.6,�L
2019/04/01,14:50,0.761,1.115,0.772,1.424,1.032,0.437,0.774,0.732,�k�k��,6.1,�L
2019/04/01,15:00,0.762,1.115,0.769,1.424,1.034,0.435,0.774,0.733,�k�k��,5.1,�L
2019/04/01,15:10,0.762,1.119,0.772,1.424,1.033,0.434,0.773,0.734,�k��,4.9,��
2019/04/01,15:20,0.765,1.117,0.772,1.426,1.037,0.436,0.772,0.735,�k�k��,5.3,��
2019/04/01,15:30,0.761,1.119,0.772,1.422,1.035,0.436,0.773,0.736,�k�k��,5.0,��
2019/04/01,15:40,0.761,1.118,0.772,1.428,1.037,0.434,0.772,0.736,�k,5.1,��
2019/04/01,15:50,0.762,1.118,0.772,1.427,1.037,0.434,0.774,0.737,�k�k��,4.2,�L
2019/04/01,16:00,0.762,1.119,0.773,1.426,1.037,0.435,0.774,0.736,�k,3.3,��
2019/04/01,16:10,0.763,1.119,0.772,1.425,1.035,0.435,0.773,0.736,�k��,5.0,��
2019/04/01,16:20,0.762,1.120,0.772,1.425,1.036,0.435,0.773,0.734,�k�k��,4.5,�L
2019/04/01,16:30,0.763,1.119,0.770,1.424,1.035,0.436,0.771,0.737,�k�k��,4.2,�L
2019/04/01,16:40,0.762,1.122,0.771,1.424,1.036,0.435,0.776,0.736,�k,4.8,��
2019/04/01,16:50,0.763,1.117,0.773,1.425,1.036,0.434,0.775,0.733,�k�k��,4.5,��
2019/04/01,17:00,0.761,1.120,0.772,1.426,1.032,0.436,0.775,0.737,�k�k��,4.5,��
2019/04/01,17:10,0.764,1.119,0.770,1.427,1.033,0.435,0.776,0.736,�k,3.7,��
2019/04/01,17:20,0.762,1.120,0.772,1.423,1.036,0.435,0.776,0.733,�k�k��,2.9,��
2019/04/01,17:30,0.763,1.120,0.772,1.426,1.034,0.435,0.775,0.736,�k,2.6,��
2019/04/01,17:40,0.762,1.119,0.771,1.424,1.033,0.435,0.775,0.737,�k,2.3,��
2019/04/01,17:50,0.760,1.120,0.773,1.423,1.034,0.433,0.775,0.734,�k,1.5,��
2019/04/01,18:00,0.761,1.119,0.773,1.427,1.035,0.434,0.775,0.734,�k�k��,2.6,��
2019/04/01,18:10,0.761,1.116,0.773,1.424,1.035,0.435,0.775,0.735,�k�k��,3.2,��
2019/04/01,18:20,0.763,1.119,0.772,1.427,1.038,0.435,0.776,0.734,�k��,3.2,��
2019/04/01,18:30,0.762,1.119,0.772,1.425,1.036,0.435,0.776,0.735,�k��,3.4,��
2019/04/01,18:40,0.760,1.119,0.772,1.425,1.036,0.434,0.776,0.735,�k�k��,2.8,��
2019/04/01,18:50,0.763,1.119,0.773,1.423,1.032,0.434,0.775,0.735,�k��,4.0,��
2019/04/01,19:00,0.761,1.121,0.772,1.426,1.035,0.434,0.775,0.735,�k��,3.6,��
2019/04/01,19:10,0.761,1.118,0.772,1.426,1.036,0.435,0.775,0.737,�k��,2.5,��
2019/04/01,19:20,0.763,1.120,0.772,1.425,1.033,0.435,0.773,0.735,�k��,2.2,��
2019/04/01,19:30,0.762,1.119,0.772,1.425,1.033,0.436,0.775,0.735,��,1.5,��
2019/04/01,19:40,0.762,1.116,0.771,1.423,1.036,0.435,0.776,0.734,��,1.9,��
2019/04/01,19:50,0.760,1.119,0.772,1.424,1.036,0.434,0.776,0.736,��,1.7,��
2019/04/01,20:00,0.762,1.118,0.774,1.426,1.034,0.436,0.775,0.734,���k��,2.0,��
2019/04/01,20:10,0.762,1.120,0.772,1.425,1.034,0.435,0.776,0.735,���k��,2.3,��
2019/04/01,20:20,0.762,1.121,0.773,1.424,1.034,0.435,0.777,0.736,���k��,1.7,��
2019/04/01,20:30,0.759,1.120,0.772,1.424,1.035,0.434,0.775,0.736,��,0.9,��
2019/04/01,20:40,0.763,1.118,0.772,1.425,1.033,0.434,0.776,0.734,���k��,1.7,��
2019/04/01,20:50,0.760,1.119,0.771,1.425,1.035,0.434,0.775,0.735,��쓌,0.6,��
2019/04/01,21:00,0.762,1.118,0.772,1.427,1.035,0.435,0.776,0.733,��쐼,0.9,��
2019/04/01,21:10,0.763,1.120,0.771,1.424,1.038,0.434,0.773,0.734,�k,1.2,��
2019/04/01,21:20,0.762,1.116,0.771,1.427,1.034,0.434,0.776,0.734,�k�k��,1.4,��
2019/04/01,21:30,0.762,1.120,0.772,1.425,1.033,0.434,0.774,0.735,�k�k��,1.5,��
2019/04/01,21:40,0.761,1.119,0.770,1.423,1.034,0.435,0.775,0.734,�k,1.2,��
2019/04/01,21:50,0.762,1.119,0.770,1.424,1.034,0.435,0.774,0.734,�k�k��,1.1,��
2019/04/01,22:00,0.759,1.120,0.774,1.423,1.035,0.435,0.775,0.734,�k��,1.4,��
2019/04/01,22:10,0.762,1.118,0.771,1.426,1.036,0.434,0.774,0.735,�k��,1.4,��
2019/04/01,22:20,0.763,1.118,0.770,1.425,1.033,0.435,0.776,0.736,�k�k��,1.1,��
2019/04/01,22:30,0.760,1.116,0.774,1.426,1.033,0.436,0.774,0.735,�k��,1.4,��
2019/04/01,22:40,0.762,1.117,0.772,1.423,1.035,0.435,0.776,0.734,�k��,1.4,��
2019/04/01,22:50,0.760,1.117,0.773,1.426,1.036,0.434,0.775,0.735,�k�k��,0.9,��
2019/04/01,23:00,0.760,1.121,0.772,1.424,1.036,0.434,0.774,0.735,�k��,1.2,��
2019/04/01,23:10,0.760,1.121,0.771,1.427,1.037,0.434,0.775,0.734,�k��,1.5,��
2019/04/01,23:20,0.761,1.116,0.771,1.425,1.034,0.435,0.776,0.735,���k��,1.5,��
2019/04/01,23:30,0.762,1.119,0.771,1.424,1.035,0.434,0.776,0.736,�k�k��,2.3,��
2019/04/01,23:40,0.759,1.117,0.770,1.425,1.034,0.435,0.774,0.736,�k�k��,2.8,��
2019/04/01,23:50,0.760,1.120,0.772,1.428,1.036,0.435,0.776,0.735,�k��,3.1,��
